Greenwood, MS

3:12 PM CDT on April 23, 2017 (GMT -0500)
Greenwood-Leflore

Weather History for KGWO - June, 2013

Change the Weather History Date:

Tuesday, June 25, 2013

  Actual Average Record
Temperature  
Mean Temperature 83 °F 80 °F  
Max Temperature 92 °F 91 °F 100 °F (2012)
Min Temperature 73 °F 70 °F 53 °F (1974)
Degree Days  
Heating Degree Days 0 0  
Month to date heating degree days 0 0  
Since 1 June heating degree days 0 0  
Since 1 July heating degree days 2780 2688  
Cooling Degree Days 18 15  
Month to date cooling degree days 339 335  
Year to date cooling degree days 615 665  
Since 1 June cooling degree days 339 335  
Growing Degree Days 32 (Base 50)    
Moisture  
Dew Point 72 °F    
Average Humidity 71    
Maximum Humidity 93    
Minimum Humidity 49    
Precipitation  
Precipitation 0.00 in 0.14 in 1.72 in (2004)
Month to date precipitation 2.84 3.61  
Year to date precipitation 33.25 26.94  
Sea Level Pressure  
Sea Level Pressure 30.04 in    
Wind  
Wind Speed 7 mph (SSW)    
Max Wind Speed 15 mph    
Max Gust Speed 18 mph    
Visibility 10 miles    
Events      
T = Trace of Precipitation, MM = Missing Value Source: NWS Daily Summary

Daily Weather History Graph

Daily Weather History Graph

Search for Another Location

Airport or City:

Trip Planner

Search our weather history database for the weather conditions in past years. The results will help you decide how hot, cold, wet, or windy it might be!

Date:

Astronomy

Jun. 25, 2013 Rise Set
Actual Time 5:51 AM CDT 8:14 PM CDT
Civil Twilight 5:23 AM CDT 8:43 PM CDT
Nautical Twilight 4:47 AM CDT 9:18 PM CDT
Astronomical Twilight 4:08 AM CDT 9:57 PM CDT
Moon 10:09 PM CDT (6/25) 8:24 AM CDT (6/25)
Length of Visible Light 15h 20m
Length of Day
14h 22m
Waning Gibbous, 92% of the Moon is Illuminated
Jun 25
Waning Gibbous
Jun 29
Last Quarter
Jul 8
New
Jul 15
First Quarter
Jul 22
Full

Hourly Weather History & Observations

Time (CDT) Temp. Heat Index Dew Point Humidity Pressure Visibility Wind Dir Wind Speed Gust Speed Precip Events Conditions
12:53 AM 73.9 °F - 71.1 °F 91% 30.07 in 10.0 mi SSW 3.5 mph - N/A   Clear
1:53 AM 73.9 °F - 71.1 °F 91% 30.07 in 10.0 mi SSE 3.5 mph - N/A   Clear
2:53 AM 75.0 °F - 71.1 °F 87% 30.06 in 10.0 mi South 5.8 mph - N/A   Clear
3:53 AM 73.0 °F - 71.1 °F 93% 30.07 in 10.0 mi South 3.5 mph - N/A   Clear
4:53 AM 73.9 °F - 71.1 °F 91% 30.08 in 10.0 mi SSE 3.5 mph - N/A   Clear
5:53 AM 73.0 °F - 71.1 °F 93% 30.09 in 10.0 mi South 4.6 mph - N/A   Clear
6:53 AM 75.0 °F - 72.0 °F 90% 30.09 in 10.0 mi South 6.9 mph - N/A   Clear
7:53 AM 78.1 °F - 73.0 °F 84% 30.09 in 10.0 mi South 9.2 mph - N/A   Clear
8:53 AM 82.0 °F 87.9 °F 73.9 °F 76% 30.10 in 10.0 mi SSW 8.1 mph - N/A   Clear
9:53 AM 84.0 °F 91.2 °F 73.9 °F 72% 30.10 in 10.0 mi SSW 5.8 mph - N/A   Clear
10:53 AM 87.1 °F 94.5 °F 73.0 °F 63% 30.09 in 10.0 mi SSW 11.5 mph - N/A   Clear
11:53 AM 89.1 °F 97.0 °F 73.0 °F 59% 30.08 in 10.0 mi SSW 11.5 mph 18.4 mph N/A   Partly Cloudy
12:53 PM 90.0 °F 96.9 °F 72.0 °F 55% 30.07 in 10.0 mi SSW 12.7 mph - N/A   Partly Cloudy
1:53 PM 91.0 °F 96.6 °F 70.0 °F 50% 30.06 in 10.0 mi SSW 11.5 mph - N/A   Scattered Clouds
2:53 PM 91.0 °F 96.6 °F 70.0 °F 50% 30.06 in 10.0 mi SW 6.9 mph - N/A   Scattered Clouds
3:53 PM 91.9 °F 97.4 °F 70.0 °F 48% 30.03 in 10.0 mi WSW 8.1 mph - N/A   Clear
4:53 PM 91.0 °F 95.6 °F 69.1 °F 48% 30.00 in 10.0 mi SSW 9.2 mph - N/A   Clear
5:53 PM 90.0 °F 93.6 °F 68.0 °F 48% 29.98 in 10.0 mi SSW 8.1 mph - N/A   Clear
6:53 PM 88.0 °F 93.8 °F 71.1 °F 57% 29.97 in 10.0 mi SSW 8.1 mph - N/A   Clear
7:53 PM 84.0 °F 90.2 °F 73.0 °F 69% 29.97 in 10.0 mi SSE 5.8 mph - N/A   Clear
8:53 PM 79.0 °F - 73.9 °F 84% 29.97 in 10.0 mi Calm Calm - N/A   Clear
9:53 PM 78.1 °F - 73.9 °F 87% 29.99 in 10.0 mi Calm Calm - N/A   Clear
10:53 PM 80.1 °F 84.2 °F 73.0 °F 79% 29.99 in 10.0 mi South 6.9 mph - N/A   Clear
11:53 PM 78.1 °F - 72.0 °F 81% 29.98 in 10.0 mi SSW 5.8 mph - N/A   Clear